Flag Weather past 2 weeks in Jefferson City, Missouri, U.S.A.

Now
32 °F

Clear.


Feels Like: 32 °F
Forecast: 29 / 56 °F
Wind: No wind

Location: Jefferson City Memorial Airport

Current Time: Nov 27, 2014 at 6:26:17 PM

Latest Report: Nov 27, 2014 at 5:53 PM


Visibility: 10 mi

Pressure: 30.44 "Hg

Humidity: 69%

Dew point: 23 °F

Location of Jefferson CityLocation

Historic Weather in Jefferson City — Graph

°F

Jefferson City temperature yesterday

Maximum temperature yesterday: 42 °F (at 1:53 PM)
Minimum temperature yesterday: 23 °F (at 12:53 AM)
Average temperature yesterday: 34 °F

Past Weeks' High & Low Weather Summary

 TemperatureHumidityPressure
High61 °F (Nov 22, 1:53 PM)100% (Nov 23, 9:58 PM)30.53 "Hg (Nov 23, 9:58 PM)
Low12 °F (Nov 18, 3:53 AM)33% (Nov 25, 2:53 PM)29.23 "Hg (Nov 23, 8:53 PM)
Average33 °F67%30.14 "Hg
* Reported Nov 12 4:53 PM — Nov 27 4:53 PM, Jefferson City, Weather by CustomWeather, © 2014

Note: Actual official high and low records may vary slightly from our data, if they occured in-between our weather recording intervals... More about our weather records

Advertising

Jefferson City weather history for previous 24 hours

 ConditionsComfort  
Time TempWeatherWind HumidityBarometerVisibility
4:53 PM
Nov 27
34 °FPassing clouds.5 mph64%30.45 "Hg10 mi
3:53 PM35 °FOvercast.5 mph61%30.45 "Hg10 mi
2:53 PM35 °FOvercast.5 mph59%30.45 "Hg10 mi
1:53 PM34 °FOvercast.8 mph61%30.46 "Hg10 mi
12:53 PM35 °FOvercast.6 mph56%30.47 "Hg10 mi
12:00 PM35 °FPassing clouds.9 mph59%30.51 "Hg10 mi
10:53 AM34 °FPartly sunny.10 mph64%30.53 "Hg10 mi
9:53 AM31 °FOvercast.8 mph73%30.52 "Hg9 mi
8:53 AM30 °FOvercast.8 mph72%30.51 "Hg9 mi
7:53 AM30 °FOvercast.8 mph79%30.49 "Hg9 mi
6:53 AM30 °FOvercast.10 mph82%30.47 "Hg7 mi
5:53 AM31 °FOvercast.12 mph82%30.44 "Hg7 mi
4:53 AM32 °FOvercast.8 mph75%30.42 "Hg9 mi
3:53 AM33 °FOvercast.7 mph78%30.39 "Hg7 mi
2:53 AM33 °FMostly cloudy.9 mph82%30.38 "Hg8 mi
1:53 AM34 °FOvercast.9 mph79%30.35 "Hg10 mi
12:53 AM35 °FMostly cloudy.15 mph78%30.31 "Hg10 mi
11:53 PM
Nov 26
34 °FOvercast.8 mph85%30.28 "Hg7 mi
10:53 PM34 °FOvercast.13 mph82%30.25 "Hg8 mi
9:53 PM34 °FOvercast.14 mph82%30.21 "Hg10 mi
8:53 PM33 °FOvercast.15 mph85%30.17 "Hg9 mi
7:53 PM35 °FOvercast.17 mph78%30.14 "Hg10 mi
6:53 PM37 °FOvercast.14 mph82%30.09 "Hg10 mi
Weather by CustomWeather, © 2014

See weather overviewHow to use our weather pages